Cherryvale, KS

11:26 PM CDT on August 25, 2016 (GMT -0500)
Tri-City

Weather History for KPPF - February, 2013

Change the Weather History Date:

Friday, February 15, 2013

  Actual Average Record
Temperature  
Mean Temperature 32 °F -  
Max Temperature 41 °F 46 °F 72 °F (1976)
Min Temperature 24 °F 26 °F 8 °F (1986)
Degree Days  
Heating Degree Days 32    
Moisture  
Dew Point 18 °F    
Average Humidity 59    
Maximum Humidity 86    
Minimum Humidity 31    
Precipitation  
Precipitation 0.00 in - - ()
Sea Level Pressure  
Sea Level Pressure 30.35 in    
Wind  
Wind Speed 11 mph (NNW)    
Max Wind Speed 16 mph    
Max Gust Speed 25 mph    
Visibility 9 miles    
Events Snow    
Averages and records for this station are not official NWS values.
T = Trace of Precipitation, MM = Missing Value Source: NWS Daily Summary

Daily Weather History Graph

Daily Weather History Graph

Search for Another Location

Airport or City:

Trip Planner

Search our weather history database for the weather conditions in past years. The results will help you decide how hot, cold, wet, or windy it might be!

Date:

Astronomy

Feb. 15, 2013 Rise Set
Actual Time 7:10 AM CST 6:02 PM CST
Civil Twilight 6:44 AM CST 6:28 PM CST
Nautical Twilight 6:13 AM CST 6:59 PM CST
Astronomical Twilight 5:43 AM CST 7:29 PM CST
Moon 9:55 AM CST (2/15) 11:54 PM CST (2/15)
Length of Visible Light 11h 44m
Length of Day
10h 51m
Waxing Crescent, 30% of the Moon is Illuminated
Feb 15
Waxing Crescent
Feb 17
First Quarter
Feb 25
Full
Mar 4
Last Quarter
Mar 11
New

Hourly Weather History & Observations

Time (CST) Temp. Windchill Dew Point Humidity Pressure Visibility Wind Dir Wind Speed Gust Speed Precip Events Conditions
12:52 AM 37.9 °F 30.0 °F 24.1 °F 57% 30.25 in 10.0 mi NW 12.7 mph - N/A   Partly Cloudy
1:52 AM 34.0 °F 25.5 °F 21.9 °F 61% 30.28 in 10.0 mi NW 11.5 mph - N/A   Clear
2:52 AM 32.0 °F 22.5 °F 21.9 °F 66% 30.30 in 10.0 mi NNW 12.7 mph 20.7 mph N/A   Clear
3:52 AM 30.9 °F 21.7 °F 23.0 °F 72% 30.30 in 10.0 mi NNW 11.5 mph - N/A   Clear
4:52 AM 30.0 °F 20.0 °F 21.9 °F 72% 30.32 in 10.0 mi North 12.7 mph - N/A   Clear
5:52 AM 28.0 °F 16.5 °F 19.9 °F 72% 30.35 in 10.0 mi NNW 15.0 mph 21.9 mph N/A   Clear
6:52 AM 26.1 °F 13.6 °F 19.0 °F 75% 30.38 in 10.0 mi NNW 16.1 mph 23.0 mph N/A   Clear
7:52 AM 26.1 °F 14.5 °F 18.0 °F 71% 30.40 in 10.0 mi NNW 13.8 mph - N/A   Clear
8:52 AM 28.0 °F 16.5 °F 18.0 °F 66% 30.41 in 10.0 mi NNW 15.0 mph 20.7 mph N/A   Clear
9:52 AM 30.9 °F 21.7 °F 16.0 °F 54% 30.42 in 10.0 mi North 11.5 mph - N/A   Clear
10:52 AM 34.0 °F 25.5 °F 14.0 °F 44% 30.42 in 10.0 mi North 11.5 mph 16.1 mph N/A   Clear
11:52 AM 37.9 °F 30.9 °F 12.0 °F 35% 30.41 in 10.0 mi North 10.4 mph - N/A   Clear
12:52 PM 37.0 °F 29.8 °F 10.9 °F 34% 30.40 in 10.0 mi NNW 10.4 mph - N/A   Clear
1:52 PM 39.9 °F 33.9 °F 12.0 °F 32% 30.37 in 10.0 mi NW 9.2 mph - N/A   Clear
2:52 PM 41.0 °F 33.5 °F 12.9 °F 32% 30.37 in 10.0 mi WNW 13.8 mph 20.7 mph N/A   Clear
3:52 PM 41.0 °F 35.2 °F 12.0 °F 31% 30.36 in 10.0 mi NNW 9.2 mph - N/A   Clear
4:52 PM 39.9 °F 32.9 °F 10.9 °F 31% 30.35 in 10.0 mi North 11.5 mph 20.7 mph N/A   Clear
5:52 PM 35.1 °F 30.1 °F 12.9 °F 40% 30.35 in 10.0 mi NNW 5.8 mph - N/A   Clear
6:52 PM 28.9 °F - 16.0 °F 58% 30.36 in 10.0 mi Calm Calm - N/A   Mostly Cloudy
7:52 PM 26.1 °F - 17.1 °F 69% 30.36 in 10.0 mi Calm Calm - N/A   Clear
8:52 PM 24.1 °F - 18.0 °F 77% 30.34 in 10.0 mi Calm Calm - N/A   Clear
9:52 PM 24.1 °F - 17.1 °F 75% 30.33 in 10.0 mi Calm Calm - N/A   Mostly Cloudy
10:52 PM 30.0 °F 21.7 °F 19.9 °F 66% 30.35 in 10.0 mi NW 9.2 mph - N/A   Overcast
11:20 PM 30.2 °F 19.3 °F 24.8 °F 80% 30.34 in 2.5 mi NNW 15.0 mph 25.3 mph 0.00 in Snow Light Snow
11:24 PM 30.2 °F 18.9 °F 26.6 °F 86% 30.34 in 3.0 mi NNW 16.1 mph 25.3 mph 0.00 in Snow Light Snow
11:52 PM 30.0 °F 21.7 °F 26.1 °F 85% 30.35 in 10.0 mi NW 9.2 mph - 0.00 in   Overcast